KLM315 LEMH-LFLL

Flight info

Callsign KLM315
Flight time 1h 3m
Altitude 31000
Route MEROS DCT LAPIT DCT CHELY DCT LUMAS DCT SOFFY DCT MRM DCT MTL
Aircraft B738/M-SDE2E3FGHIRWXY/LB1

Departure

Time 2026-04-23 13:41
Airport Menorca Airport (LEMH)

Arrival

Time 2026-04-23 14:44
Airport Lyon Saint-Exupéry Airport (LFLL)
Time Latitude Longitude Altitude Speed Heading
2026-04-23 13:22 39.86332 4.22219 306 ft 0 kts 51°
2026-04-23 13:38 39.86336 4.22233 306 ft 6 kts 82°
2026-04-23 13:38 39.86264 4.22264 306 ft 17 kts 188°
2026-04-23 13:39 39.86197 4.22196 306 ft 10 kts 266°
2026-04-23 13:39 39.86168 4.22084 306 ft 20 kts 197°
2026-04-23 13:39 39.85967 4.22047 306 ft 36 kts 188°
2026-04-23 13:39 39.85772 4.22005 306 ft 25 kts 190°
2026-04-23 13:40 39.85596 4.21964 306 ft 30 kts 191°
2026-04-23 13:40 39.85370 4.21919 306 ft 30 kts 188°
2026-04-23 13:40 39.85182 4.21882 306 ft 24 kts 198°
2026-04-23 13:40 39.85140 4.21738 306 ft 15 kts 278°
2026-04-23 13:41 39.85205 4.21647 306 ft 21 kts
2026-04-23 13:41 39.85455 4.21695 306 ft 67 kts 10°
2026-04-23 13:41 39.86201 4.21849 310 ft 147 kts 12°
2026-04-23 13:41 39.87297 4.22019 1026 ft 163 kts
2026-04-23 13:42 39.88437 4.22107 2068 ft 166 kts
2026-04-23 13:42 39.89636 4.22312 2689 ft 187 kts 14°
2026-04-23 13:42 39.91027 4.22635 3090 ft 218 kts 13°
2026-04-23 13:42 39.92603 4.23007 3536 ft 244 kts 13°
2026-04-23 13:43 39.94333 4.23414 4308 ft 259 kts 13°
2026-04-23 13:43 39.96139 4.23840 5282 ft 266 kts 12°
2026-04-23 13:43 39.97969 4.24272 6311 ft 270 kts 12°
2026-04-23 13:43 39.99810 4.24706 7470 ft 268 kts 12°
2026-04-23 13:44 40.01661 4.25145 8611 ft 266 kts 11°
2026-04-23 13:44 40.03489 4.25578 9628 ft 269 kts
2026-04-23 13:44 40.05325 4.26014 10512 ft 276 kts
2026-04-23 13:44 40.07283 4.26480 11181 ft 292 kts
2026-04-23 13:45 40.09346 4.26970 11617 ft 313 kts
2026-04-23 13:45 40.11559 4.27498 12077 ft 332 kts
2026-04-23 13:45 40.13869 4.28048 12783 ft 341 kts
2026-04-23 13:45 40.16209 4.28607 13656 ft 345 kts
2026-04-23 13:46 40.18579 4.29171 14533 ft 348 kts
2026-04-23 13:46 40.20963 4.29735 15376 ft 352 kts
2026-04-23 13:46 40.23392 4.30312 16160 ft 356 kts
2026-04-23 13:46 40.25833 4.30894 16922 ft 361 kts
2026-04-23 13:47 40.28314 4.31487 17647 ft 365 kts
2026-04-23 13:47 40.30830 4.32090 18357 ft 370 kts
2026-04-23 13:47 40.33409 4.32708 19074 ft 374 kts
2026-04-23 13:47 40.35977 4.33325 19788 ft 377 kts
2026-04-23 13:48 40.38562 4.33946 20521 ft 379 kts
2026-04-23 13:48 40.41154 4.34569 21216 ft 382 kts
2026-04-23 13:48 40.43769 4.35199 21867 ft 385 kts
2026-04-23 13:48 40.46407 4.35833 22523 ft 387 kts
2026-04-23 13:49 40.49055 4.36471 23139 ft 389 kts
2026-04-23 13:49 40.51724 4.37107 23734 ft 392 kts
2026-04-23 13:49 40.54410 4.37743 24347 ft 393 kts
2026-04-23 13:49 40.57105 4.38382 24908 ft 396 kts
2026-04-23 13:50 40.59826 4.39023 25420 ft 399 kts
2026-04-23 13:50 40.62563 4.39670 25929 ft 402 kts
2026-04-23 13:50 40.65357 4.40333 26412 ft 405 kts
2026-04-23 13:50 40.68138 4.40994 26894 ft 407 kts
2026-04-23 13:51 40.70933 4.41659 27337 ft 410 kts
2026-04-23 13:51 40.73744 4.42330 27768 ft 413 kts
2026-04-23 13:51 40.76578 4.43007 28213 ft 416 kts
2026-04-23 13:51 40.79425 4.43688 28695 ft 416 kts
2026-04-23 13:52 40.82260 4.44366 29309 ft 413 kts
2026-04-23 13:52 40.85076 4.45040 29882 ft 411 kts
2026-04-23 13:52 40.87887 4.45712 30399 ft 410 kts
2026-04-23 13:52 40.90685 4.46388 30913 ft 409 kts
2026-04-23 13:53 40.93531 4.47080 31149 ft 412 kts
2026-04-23 13:53 40.99179 4.48460 31181 ft 412 kts
2026-04-23 13:54 41.04764 4.49828 31187 ft 408 kts
2026-04-23 13:54 41.10339 4.51191 31187 ft 408 kts
2026-04-23 13:55 41.15914 4.52553 31190 ft 408 kts
2026-04-23 13:55 41.21518 4.53925 31192 ft 408 kts
2026-04-23 13:56 41.27094 4.55294 31191 ft 408 kts
2026-04-23 13:56 41.32666 4.56663 31193 ft 408 kts
2026-04-23 13:57 41.38234 4.58034 31195 ft 408 kts
2026-04-23 13:57 41.43802 4.59398 31195 ft 408 kts
2026-04-23 13:58 41.49376 4.60765 31197 ft 408 kts
2026-04-23 13:58 41.54946 4.62140 31197 ft 408 kts
2026-04-23 13:59 41.60513 4.63520 31196 ft 408 kts
2026-04-23 13:59 41.66140 4.64918 31196 ft 408 kts
2026-04-23 14:00 41.70763 4.66067 31197 ft 408 kts
2026-04-23 14:00 41.77239 4.68066 31196 ft 411 kts 11°
2026-04-23 14:01 41.82706 4.70263 31193 ft 411 kts 12°
2026-04-23 14:01 41.88160 4.72460 31192 ft 411 kts 11°
2026-04-23 14:02 41.93668 4.74660 31191 ft 411 kts 11°
2026-04-23 14:02 41.99142 4.76839 31188 ft 411 kts 11°
2026-04-23 14:03 42.04619 4.79015 31183 ft 411 kts 11°
2026-04-23 14:03 42.10090 4.81176 31176 ft 411 kts 11°
2026-04-23 14:04 42.15614 4.83359 31171 ft 411 kts 11°
2026-04-23 14:04 42.21087 4.85528 31171 ft 411 kts 11°
2026-04-23 14:05 42.26560 4.87702 31171 ft 411 kts 11°
2026-04-23 14:05 42.32025 4.89878 31171 ft 411 kts 11°
2026-04-23 14:06 42.37495 4.92059 31171 ft 411 kts 11°
2026-04-23 14:06 42.42976 4.94250 31171 ft 411 kts 11°
2026-04-23 14:07 42.48442 4.96438 31171 ft 411 kts 11°
2026-04-23 14:07 42.56631 4.99725 31214 ft 402 kts 11°
2026-04-23 14:08 42.61979 5.01876 31243 ft 401 kts 11°
2026-04-23 14:08 42.67324 5.04030 31256 ft 401 kts 11°
2026-04-23 14:09 42.72666 5.06180 31260 ft 401 kts 11°
2026-04-23 14:09 42.78013 5.08336 31260 ft 401 kts 11°
2026-04-23 14:10 42.83361 5.10504 31260 ft 401 kts 11°
2026-04-23 14:10 42.88706 5.12677 31260 ft 401 kts 11°
2026-04-23 14:11 42.94079 5.14867 31260 ft 401 kts 11°
2026-04-23 14:11 42.99426 5.17047 31260 ft 401 kts 11°
2026-04-23 14:12 43.04771 5.19218 31260 ft 402 kts 11°
2026-04-23 14:12 43.10152 5.21384 31260 ft 401 kts 11°
2026-04-23 14:13 43.15495 5.23545 31260 ft 401 kts 11°
2026-04-23 14:13 43.20844 5.25718 31260 ft 402 kts 11°
2026-04-23 14:14 43.25117 5.27459 31260 ft 402 kts 11°
2026-04-23 14:14 43.30500 5.29656 31260 ft 401 kts 11°
2026-04-23 14:15 43.35872 5.31445 31257 ft 395 kts 360°
2026-04-23 14:15 43.38626 5.31303 31261 ft 389 kts 348°
2026-04-23 14:15 43.41230 5.30543 31261 ft 387 kts 343°
2026-04-23 14:16 43.46389 5.28464 31260 ft 386 kts 340°
2026-04-23 14:16 43.51529 5.26196 31260 ft 386 kts 340°
2026-04-23 14:17 43.56655 5.23895 31260 ft 386 kts 340°
2026-04-23 14:17 43.61747 5.21587 31260 ft 386 kts 340°
2026-04-23 14:18 43.66862 5.19252 31260 ft 385 kts 340°
2026-04-23 14:18 43.71943 5.16931 31260 ft 386 kts 340°
2026-04-23 14:19 43.77042 5.14603 31260 ft 386 kts 340°
2026-04-23 14:19 43.82164 5.12252 31260 ft 389 kts 339°
2026-04-23 14:20 43.87287 5.09893 31259 ft 389 kts 340°
2026-04-23 14:20 43.89874 5.08700 30999 ft 383 kts 340°
2026-04-23 14:20 43.92342 5.07559 30634 ft 375 kts 340°
2026-04-23 14:21 43.94835 5.06406 30139 ft 372 kts 340°
2026-04-23 14:21 43.97254 5.05286 29662 ft 370 kts 339°
2026-04-23 14:21 43.99703 5.04151 29178 ft 367 kts 339°
2026-04-23 14:21 44.02114 5.03032 28702 ft 365 kts 339°
2026-04-23 14:22 44.04512 5.01918 28231 ft 362 kts 338°
2026-04-23 14:22 44.06890 5.00813 27745 ft 364 kts 335°
2026-04-23 14:22 44.09345 4.99671 27249 ft 379 kts 336°
2026-04-23 14:22 44.11881 4.98489 26750 ft 389 kts 336°
2026-04-23 14:23 44.14447 4.97293 26255 ft 389 kts 337°
2026-04-23 14:23 44.16989 4.96106 25807 ft 382 kts 339°
2026-04-23 14:23 44.19497 4.94935 25330 ft 378 kts 339°
2026-04-23 14:23 44.21999 4.93766 24853 ft 373 kts 338°
2026-04-23 14:24 44.24441 4.92624 24381 ft 370 kts 336°
2026-04-23 14:24 44.26872 4.91493 23913 ft 367 kts 337°
2026-04-23 14:24 44.29280 4.90370 23461 ft 364 kts 336°
2026-04-23 14:24 44.31673 4.89249 22999 ft 362 kts 337°
2026-04-23 14:25 44.34048 4.88134 22593 ft 357 kts 339°
2026-04-23 14:25 44.36382 4.87036 22172 ft 353 kts 341°
2026-04-23 14:25 44.38725 4.85932 21725 ft 350 kts 341°
2026-04-23 14:25 44.40989 4.84865 21296 ft 346 kts 341°
2026-04-23 14:26 44.43291 4.83778 20863 ft 343 kts 341°
2026-04-23 14:26 44.45538 4.82716 20442 ft 341 kts 340°
2026-04-23 14:26 44.47768 4.81662 20023 ft 338 kts 340°
2026-04-23 14:26 44.50013 4.80678 19589 ft 337 kts 345°
2026-04-23 14:27 44.52330 4.80168 18995 ft 341 kts 354°
2026-04-23 14:27 44.54712 4.80204 18436 ft 345 kts
2026-04-23 14:27 44.57106 4.80510 17901 ft 346 kts
2026-04-23 14:27 44.59498 4.80868 17357 ft 348 kts
2026-04-23 14:28 44.61914 4.81212 16813 ft 350 kts
2026-04-23 14:28 44.64372 4.81544 16313 ft 350 kts
2026-04-23 14:28 44.66795 4.81859 15846 ft 350 kts
2026-04-23 14:28 44.69219 4.82165 15364 ft 351 kts
2026-04-23 14:29 44.71637 4.82462 14986 ft 348 kts
2026-04-23 14:29 44.74032 4.82751 14637 ft 344 kts
2026-04-23 14:29 44.76400 4.83034 14277 ft 341 kts
2026-04-23 14:29 44.78773 4.83312 13896 ft 339 kts
2026-04-23 14:30 44.81115 4.83586 13553 ft 335 kts
2026-04-23 14:30 44.83425 4.83855 13212 ft 332 kts
2026-04-23 14:30 44.85717 4.84119 12756 ft 332 kts
2026-04-23 14:30 44.88009 4.84382 12414 ft 329 kts
2026-04-23 14:31 44.90267 4.84637 12156 ft 323 kts
2026-04-23 14:31 44.92482 4.84895 11836 ft 319 kts
2026-04-23 14:31 44.94681 4.85150 11549 ft 314 kts
2026-04-23 14:31 44.96835 4.85396 11330 ft 308 kts
2026-04-23 14:32 44.98955 4.85635 11270 ft 309 kts
2026-04-23 14:32 45.01124 4.85880 11263 ft 317 kts
2026-04-23 14:32 45.03340 4.86134 11261 ft 322 kts
2026-04-23 14:32 45.05615 4.86396 11260 ft 325 kts
2026-04-23 14:33 45.07852 4.86653 11259 ft 321 kts
2026-04-23 14:33 45.10027 4.86903 11183 ft 309 kts
2026-04-23 14:33 45.12122 4.87144 11026 ft 296 kts
2026-04-23 14:33 45.14152 4.87378 10661 ft 291 kts
2026-04-23 14:34 45.16166 4.87611 10221 ft 290 kts
2026-04-23 14:34 45.18164 4.87841 9783 ft 288 kts
2026-04-23 14:34 45.20150 4.88071 9361 ft 285 kts
2026-04-23 14:34 45.22118 4.88298 8949 ft 283 kts
2026-04-23 14:35 45.24060 4.88523 8528 ft 280 kts
2026-04-23 14:35 45.25998 4.88747 8096 ft 278 kts
2026-04-23 14:35 45.27929 4.89048 7676 ft 275 kts 13°
2026-04-23 14:35 45.29616 4.90147 7238 ft 271 kts 38°
2026-04-23 14:36 45.30969 4.92020 6840 ft 269 kts 49°
2026-04-23 14:36 45.32236 4.93950 6620 ft 265 kts 45°
2026-04-23 14:36 45.33544 4.95757 6345 ft 259 kts 44°
2026-04-23 14:36 45.34859 4.97490 5899 ft 259 kts 43°
2026-04-23 14:37 45.36185 4.99231 5558 ft 260 kts 43°
2026-04-23 14:37 45.37511 5.00956 5273 ft 258 kts 43°
2026-04-23 14:37 45.38821 5.02660 5122 ft 251 kts 43°
2026-04-23 14:37 45.40095 5.04321 5015 ft 242 kts 43°
2026-04-23 14:38 45.41325 5.05925 4833 ft 237 kts 43°
2026-04-23 14:38 45.42530 5.07496 4450 ft 236 kts 42°
2026-04-23 14:38 45.43741 5.09076 4041 ft 236 kts 42°
2026-04-23 14:38 45.44948 5.10652 3647 ft 238 kts 42°
2026-04-23 14:39 45.46301 5.11997 3366 ft 236 kts 26°
2026-04-23 14:39 45.47860 5.12502 3224 ft 227 kts
2026-04-23 14:39 45.49410 5.12329 3017 ft 218 kts 355°
2026-04-23 14:39 45.50858 5.12061 2965 ft 203 kts 353°
2026-04-23 14:40 45.52124 5.11836 2941 ft 192 kts 354°
2026-04-23 14:40 45.53470 5.11640 2959 ft 189 kts 355°
2026-04-23 14:40 45.54777 5.11467 3002 ft 187 kts 355°
2026-04-23 14:40 45.56072 5.11304 3019 ft 188 kts 355°
2026-04-23 14:41 45.57398 5.11140 3014 ft 191 kts 355°
2026-04-23 14:41 45.58720 5.10979 3006 ft 190 kts 355°
2026-04-23 14:41 45.60015 5.10822 2952 ft 188 kts 355°
2026-04-23 14:41 45.61302 5.10666 2746 ft 183 kts 355°
2026-04-23 14:42 45.62542 5.10516 2518 ft 175 kts 356°
2026-04-23 14:42 45.63708 5.10375 2285 ft 164 kts 356°
2026-04-23 14:42 45.64817 5.10240 2048 ft 156 kts 356°
2026-04-23 14:42 45.65863 5.10114 1880 ft 145 kts 355°
2026-04-23 14:43 45.66837 5.09996 1708 ft 138 kts 355°
2026-04-23 14:43 45.67782 5.09881 1498 ft 135 kts 355°
2026-04-23 14:43 45.68722 5.09767 1321 ft 136 kts 355°
2026-04-23 14:43 45.69676 5.09651 1140 ft 136 kts 355°
2026-04-23 14:44 45.70605 5.09539 958 ft 136 kts 355°
2026-04-23 14:44 45.71546 5.09427 830 ft 129 kts 355°
2026-04-23 14:44 45.72146 5.09354 829 ft 53 kts 355°
2026-04-23 14:44 45.72439 5.09291 829 ft 35 kts 336°
2026-04-23 14:45 45.72585 5.09177 829 ft 20 kts 323°
2026-04-23 14:45 45.72702 5.09079 829 ft 19 kts 339°
2026-04-23 14:45 45.72812 5.09048 829 ft 14 kts 355°
2026-04-23 14:45 45.72915 5.09030 829 ft 17 kts 342°
2026-04-23 14:46 45.72961 5.08899 829 ft 14 kts 269°
2026-04-23 14:46 45.72956 5.08782 829 ft 9 kts 265°
2026-04-23 14:46 45.72951 5.08692 829 ft 11 kts 265°
2026-04-23 14:46 45.72944 5.08567 829 ft 13 kts 264°
2026-04-23 14:47 45.72930 5.08437 829 ft 16 kts 248°
2026-04-23 14:47 45.72827 5.08351 829 ft 18 kts 173°
2026-04-23 14:47 45.72712 5.08370 829 ft 14 kts 176°
2026-04-23 14:47 45.72613 5.08379 829 ft 17 kts 176°
2026-04-23 14:48 45.72469 5.08394 829 ft 20 kts 175°
2026-04-23 14:48 45.72372 5.08406 829 ft 12 kts 175°
2026-04-23 14:48 45.72278 5.08390 829 ft 13 kts 226°
2026-04-23 14:48 45.72247 5.08303 829 ft 10 kts 249°
2026-04-23 14:49 45.72219 5.08202 829 ft 6 kts 248°
2026-04-23 14:49 45.72215 5.08188 829 ft 0 kts 248°